User: anonymous   Login
Location: Unspecified
(0.0000°N, 0.0000°E)
Time: 11:28:05
(UTC+00:00)
Language:

Optus B1 - Orbit

View from above orbital plane
View from above orbital plane
View from above satellite
View from above satellite

Ground track
Ground track

The orbit data is extracted from the following two-line orbital elements,

1 22087U 92054A   15141.33869488  .00000000  00000-0  10000-3 0  9994
2 22087 007.5018 052.3967 0010887 035.3353 324.5777 00.99199415 94577
Epoch (UTC): 21 May 2015 08:07:43
Eccentricity: 0.0010887
inclination: 7.5018°
perigee height: 36043 km
apogee height: 36136 km
right ascension of ascending node: 52.3967°
argument of perigee: 35.3353°
revolutions per day: 0.99199415
mean anomaly at epoch: 324.5777°
orbit number at epoch: 9457

The dashed part of the orbit path shows where the satellite is in the earth's shadow,  

DLR